QPF
0.00 0.00 0.00 0.00 0.00 0.00 0.00 0.00 0.00 0.00 0.00 0.00 0.00 0.00 0.00 0.00 0.00 0.00 0.00 0.00 0.00 0.00 0.00 0.00 0.00 0.00 0.00 0.00 0.00 0.00 0.00 0.00 0.00 0.01 0.00 0.00 0.00 0.00 0.00 0.00 0.00 0.00 0.00 0.00 0.00
0.00 0.00 0.00 0.00 0.00 0.00 0.00 0.00 0.00 0.00 0.00 0.00 0.00 0.00 0.00 0.00 0.00 0.00 0.00 0.00 0.00 0.00 0.00 0.00 0.00 0.00 0.00 0.00 0.00 0.00 0.00 0.00 0.00 0.00 0.00 0.00 0.00 0.00 0.00 0.00 0.00 0.00 0.00 0.00 0.00
0.00 0.00 0.00 0.00 0.00 0.00 0.00 0.00 0.00 0.00 0.00 0.00 0.00 0.00 0.00 0.00 0.00 0.00 0.00 0.00 0.00 0.00 0.00 0.00 0.00 0.00 0.00 0.00 0.00 0.00 0.00 0.00 0.00 0.00 0.00 0.00 0.00 0.00 0.00 0.00 0.00 0.00 0.00 0.00 0.00
0.00 0.00 0.00 0.00 0.00 0.00 0.00 0.00 0.00 0.00 0.00 0.00 0.00 0.00 0.00 0.00 0.00 0.00 0.00 0.00 0.00 0.00 0.00 0.00 0.00 0.00 0.00 0.00 0.00 0.00 0.00 0.00 0.00 0.00 0.00 0.00 0.00 0.00 0.00 0.00 0.00 0.00 0.00 0.00 0.00
0.00 0.00 0.00 0.00 0.00 0.00 0.00 0.00 0.00 0.00 0.00 0.00 0.00 0.00 0.00 0.00 0.00 0.00 0.00 0.00 0.00 0.00 0.00 0.00 0.00 0.00 0.00 0.00 0.00 0.00 0.00 0.00 0.00 0.00 0.00 0.00 0.00 0.00 0.00 0.00 0.00 0.00 0.00 0.00 0.00
0.00 0.00 0.00 0.00 0.00 0.00 0.00 0.00 0.00 0.00 0.00 0.00 0.00 0.00 0.00 0.00 0.00 0.00 0.00 0.00 0.00 0.00 0.00 0.00 0.00 0.00 0.00 0.00 0.00 0.00 0.00 0.00 0.00 0.00 0.00 0.00 0.00 0.00 0.00 0.00 0.00 0.00 0.00 0.00 0.00
0.00 0.00 0.00 0.00 0.00 0.00 0.00 0.00 0.00 0.00 0.00 0.00 0.00 0.00 0.00 0.00 0.00 0.00 0.00 0.00 0.00 0.00 0.00 0.00 0.00 0.00 0.00 0.00 0.00 0.00 0.00 0.00 0.00 0.00 0.00 0.00 0.00 0.00 0.00 0.00 0.00 0.00 0.00 0.02 0.01
0.00 0.00 0.00 0.00 0.00 0.00 0.00 0.00 0.00 0.00 0.00 0.00 0.00 0.00 0.00 0.00 0.00 0.00 0.00 0.00 0.00 0.00 0.00 0.00 0.00 0.00 0.00 0.00 0.00 0.00 0.00 0.00 0.00 0.00 0.00 0.00 0.00 0.00 0.00 0.00 0.01 0.02 0.04 0.10 0.07
0.00 0.00 0.00 0.00 0.00 0.00 0.00 0.00 0.00 0.00 0.00 0.00 0.00 0.00 0.00 0.00 0.00 0.00 0.00 0.00 0.00 0.00 0.00 0.00 0.00 0.00 0.00 0.00 0.00 0.00 0.00 0.00 0.00 0.00 0.00 0.00 0.00 0.00 0.00 0.00 0.01 0.01 0.05 0.15 0.30
0.00 0.00 0.00 0.00 0.00 0.00 0.00 0.00 0.00 0.00 0.00 0.00 0.00 0.00 0.00 0.00 0.00 0.00 0.00 0.00 0.00 0.00 0.00 0.00 0.00 0.00 0.00 0.00 0.00 0.00 0.00 0.00 0.00 0.00 0.00 0.00 0.00 0.00 0.00 0.00 0.00 0.00 0.03 0.16 0.69
0.00 0.00 0.00 0.00 0.00 0.00 0.00 0.00 0.00 0.00 0.00 0.00 0.00 0.00 0.00 0.00 0.00 0.00 0.00 0.00 0.00 0.00 0.00 0.00 0.00 0.00 0.00 0.00 0.00 0.00 0.00 0.00 0.00 0.00 0.00 0.00 0.00 0.00 0.00 0.00 0.00 0.00 0.02 0.03 0.09
0.00 0.00 0.00 0.00 0.00 0.00 0.00 0.00 0.00 0.00 0.00 0.00 0.00 0.00 0.00 0.00 0.00 0.00 0.00 0.00 0.00 0.00 0.00 0.00 0.00 0.00 0.00 0.00 0.00 0.00 0.00 0.00 0.00 0.00 0.00 0.00 0.00 0.00 0.00 0.00 0.00 0.00 0.01 0.01 0.00
0.00 0.00 0.00 0.00 0.00 0.00 0.00 0.00 0.00 0.00 0.00 0.00 0.00 0.00 0.00 0.00 0.00 0.00 0.00 0.00 0.00 0.00 0.00 0.00 0.00 0.00 0.00 0.00 0.00 0.00 0.00 0.00 0.00 0.00 0.00 0.00 0.00 0.00 0.00 0.00 0.01 0.00 0.00 0.00 0.00
0.00 0.00 0.00 0.00 0.00 0.00 0.00 0.00 0.00 0.00 0.00 0.00 0.00 0.00 0.00 0.00 0.00 0.00 0.00 0.00 0.00 0.00 0.00 0.00 0.00 0.00 0.00 0.00 0.00 0.00 0.00 0.00 0.00 0.00 0.00 0.00 0.00 0.00 0.00 0.00 0.00 0.00 0.00 0.00 0.00
0.00 0.00 0.00 0.00 0.00 0.00 0.00 0.00 0.00 0.00 0.00 0.00 0.00 0.00 0.00 0.00 0.00 0.00 0.00 0.00 0.00 0.00 0.00 0.00 0.00 0.00 0.00 0.00 0.00 0.00 0.00 0.00 0.00 0.00 0.00 0.00 0.00 0.00 0.00 0.00 0.00 0.00 0.00 0.00 0.00
0.00 0.00 0.00 0.00 0.00 0.00 0.00 0.00 0.00 0.00 0.00 0.00 0.00 0.00 0.00 0.00 0.00 0.00 0.00 0.00 0.00 0.00 0.00 0.00 0.00 0.00 0.00 0.00 0.00 0.00 0.00 0.00 0.00 0.00 0.00 0.00 0.00 0.00 0.00 0.00 0.00 0.00 0.00 0.00 0.00
0.00 0.00 0.00 0.00 0.00 0.00 0.00 0.00 0.00 0.00 0.00 0.00 0.00 0.00 0.00 0.00 0.00 0.00 0.00 0.00 0.00 0.00 0.00 0.00 0.00 0.00 0.00 0.00 0.00 0.00 0.00 0.00 0.00 0.00 0.00 0.00 0.00 0.00 0.00 0.00 0.00 0.00 0.00 0.00 0.00
0.00 0.00 0.00 0.00 0.00 0.00 0.00 0.00 0.00 0.00 0.00 0.00 0.00 0.00 0.00 0.00 0.00 0.00 0.00 0.00 0.00 0.00 0.00 0.00 0.00 0.00 0.00 0.00 0.00 0.00 0.00 0.00 0.00 0.00 0.00 0.00 0.00 0.00 0.00 0.00 0.00 0.00 0.00 0.00 0.00
0.00 0.00 0.00 0.00 0.00 0.00 0.00 0.00 0.00 0.00 0.00 0.00 0.00 0.00 0.00 0.00 0.00 0.00 0.00 0.00 0.00 0.00 0.00 0.00 0.00 0.00 0.00 0.00 0.00 0.00 0.00 0.00 0.00 0.00 0.00 0.00 0.00 0.00 0.00 0.00 0.00 0.00 0.00 0.00 0.00
0.00 0.00 0.00 0.00 0.00 0.00 0.00 0.00 0.00 0.00 0.00 0.00 0.00 0.00 0.00 0.00 0.00 0.00 0.00 0.00 0.00 0.00 0.00 0.00 0.00 0.00 0.00 0.00 0.00 0.00 0.00 0.00 0.00 0.00 0.00 0.00 0.00 0.00 0.00 0.00 0.00 0.00 0.00 0.00 0.00
0.00 0.00 0.00 0.00 0.00 0.00 0.00 0.00 0.00 0.00 0.00 0.00 0.00 0.00 0.00 0.00 0.00 0.00 0.00 0.00 0.00 0.00 0.00 0.00 0.00 0.00 0.00 0.00 0.00 0.00 0.00 0.00 0.00 0.00 0.00 0.00 0.00 0.00 0.00 0.00 0.00 0.00 0.00 0.00 0.00
0.00 0.00 0.00 0.00 0.00 0.00 0.00 0.00 0.00 0.00 0.00 0.00 0.00 0.00 0.00 0.00 0.00 0.00 0.00 0.00 0.00 0.00 0.00 0.00 0.00 0.00 0.00 0.00 0.00 0.00 0.00 0.00 0.00 0.00 0.00 0.00 0.00 0.00 0.00 0.00 0.00 0.00 0.00 0.00 0.00
0.00 0.00 0.04 0.02 0.00 0.00 0.00 0.00 0.00 0.00 0.00 0.00 0.00 0.00 0.00 0.00 0.00 0.00 0.00 0.00 0.00 0.00 0.00 0.00 0.00 0.00 0.00 0.00 0.00 0.00 0.00 0.00 0.00 0.00 0.00 0.00 0.00 0.00 0.00 0.00 0.00 0.00 0.00 0.00 0.00
0.01 0.00 0.02 0.08 0.00 0.00 0.00 0.00 0.00 0.00 0.00 0.00 0.00 0.00 0.00 0.00 0.00 0.00 0.00 0.00 0.00 0.00 0.00 0.00 0.00 0.00 0.00 0.00 0.00 0.00 0.00 0.00 0.00 0.00 0.00 0.00 0.00 0.00 0.00 0.00 0.00 0.00 0.00 0.00 0.00
0.03 0.00 0.00 0.06 0.11 0.00 0.00 0.00 0.00 0.00 0.00 0.00 0.00 0.00 0.00 0.00 0.00 0.00 0.00 0.00 0.00 0.00 0.00 0.00 0.00 0.00 0.00 0.00 0.00 0.00 0.00 0.00 0.00 0.00 0.00 0.00 0.00 0.00 0.00 0.00 0.00 0.00 0.00 0.00 0.00
0.02 0.00 0.00 0.00 0.03 0.08 0.01 0.00 0.00 0.00 0.00 0.00 0.00 0.00 0.00 0.00 0.00 0.00 0.00 0.00 0.00 0.00 0.00 0.00 0.00 0.00 0.00 0.00 0.00 0.00 0.00 0.00 0.00 0.00 0.00 0.00 0.00 0.00 0.00 0.00 0.00 0.00 0.00 0.00 0.00
0.03 0.00 0.00 0.00 0.00 0.06 0.06 0.00 0.00 0.00 0.00 0.00 0.00 0.00 0.00 0.00 0.00 0.00 0.00 0.00 0.00 0.00 0.00 0.00 0.00 0.00 0.00 0.00 0.00 0.00 0.00 0.00 0.00 0.00 0.00 0.00 0.00 0.00 0.00 0.00 0.00 0.00 0.00 0.00 0.00
MSLP
1022.20 1021.60 1021.16 1020.61 1020.16 1019.68 1019.20 1018.73 1018.47 1018.16 1017.71 1017.35 1017.01 1016.59 1016.09 1015.65 1014.78 1014.64 1013.86 1011.87 1011.56 1011.64 1011.93 1012.17 1012.31 1011.85 1012.34 1012.55 1012.66 1013.26 1015.07 1016.11 1015.75 1015.30 1013.86 1012.22 1012.53 1012.29 1012.64 1013.67 1014.20 1014.61 1015.27 1015.98 1018.19
1022.30 1021.87 1021.33 1020.67 1020.17 1019.57 1019.15 1018.69 1018.23 1017.97 1017.48 1017.08 1016.81 1016.48 1016.04 1015.62 1015.04 1013.51 1010.89 1010.93 1011.04 1011.59 1011.95 1012.07 1011.96 1012.17 1012.45 1012.20 1012.30 1012.74 1013.74 1013.75 1013.29 1012.96 1012.61 1011.91 1012.00 1012.21 1012.74 1013.79 1014.39 1014.91 1015.56 1016.82 1018.08
1022.45 1021.88 1021.29 1020.86 1020.32 1019.66 1019.08 1018.60 1018.22 1017.75 1017.31 1016.84 1016.49 1016.17 1015.90 1015.57 1014.70 1011.26 1009.47 1010.14 1010.66 1011.20 1011.27 1011.62 1011.83 1012.19 1012.08 1011.73 1011.60 1011.62 1012.09 1012.25 1011.89 1011.67 1011.73 1011.61 1011.66 1012.02 1012.72 1013.73 1013.56 1014.68 1015.97 1017.19 1018.27
1022.44 1021.79 1021.29 1020.86 1020.28 1019.55 1019.10 1018.55 1018.19 1017.58 1017.13 1016.70 1016.31 1015.84 1015.60 1015.30 1013.31 1009.70 1009.32 1009.54 1010.37 1011.29 1011.46 1011.39 1011.58 1011.96 1011.82 1011.50 1010.99 1011.13 1010.80 1011.02 1010.89 1011.01 1011.41 1011.42 1010.76 1011.60 1012.06 1012.15 1012.57 1013.70 1015.16 1016.87 1018.15
1022.43 1021.95 1021.43 1020.74 1020.07 1019.56 1018.98 1018.43 1017.93 1017.32 1016.87 1016.50 1016.19 1015.81 1015.23 1014.45 1011.80 1009.14 1009.39 1009.76 1010.57 1011.13 1011.31 1011.34 1011.43 1011.66 1011.53 1011.00 1010.78 1010.83 1011.20 1011.02 1011.11 1010.93 1010.38 1010.82 1010.97 1011.49 1012.13 1011.99 1013.36 1014.63 1015.72 1016.82 1017.77
1022.29 1021.73 1021.21 1020.60 1019.76 1019.36 1018.81 1018.26 1017.53 1016.82 1016.48 1016.14 1015.93 1015.86 1015.24 1013.27 1009.39 1009.15 1009.48 1009.99 1010.32 1010.74 1010.76 1010.80 1010.81 1011.06 1011.12 1010.94 1010.92 1011.27 1011.28 1011.43 1011.45 1011.09 1010.69 1011.09 1011.59 1011.33 1012.81 1012.81 1013.84 1014.96 1016.00 1017.07 1017.96
1022.16 1021.73 1021.21 1020.56 1019.89 1019.18 1018.35 1017.74 1016.88 1016.24 1015.96 1015.74 1015.64 1015.46 1014.37 1011.02 1009.32 1009.58 1009.86 1009.72 1009.82 1010.02 1010.19 1010.22 1010.45 1010.87 1010.36 1010.48 1010.54 1011.13 1011.80 1012.01 1011.78 1011.49 1011.53 1011.37 1011.75 1012.26 1012.41 1013.37 1014.15 1015.56 1016.76 1018.03 1019.19
1022.04 1021.59 1021.04 1020.42 1019.69 1018.88 1017.90 1016.92 1016.12 1015.58 1015.47 1015.17 1015.24 1015.08 1012.92 1009.56 1009.26 1009.49 1009.69 1009.63 1009.41 1009.49 1009.54 1009.79 1010.03 1010.27 1010.31 1010.42 1010.91 1011.61 1012.35 1012.54 1011.95 1011.66 1011.37 1011.27 1011.99 1012.64 1013.69 1015.08 1016.12 1016.53 1017.28 1018.21 1018.68
1021.91 1021.47 1020.98 1020.37 1019.62 1018.72 1017.58 1016.27 1015.14 1014.59 1014.93 1014.91 1015.22 1014.44 1011.72 1008.98 1009.16 1008.50 1009.01 1009.28 1009.13 1009.17 1009.25 1009.44 1009.87 1010.40 1010.70 1011.40 1012.40 1012.81 1013.07 1012.89 1012.26 1011.34 1011.27 1011.65 1011.83 1012.59 1013.79 1014.75 1015.31 1016.62 1017.49 1017.95 1017.58
1021.80 1021.32 1020.73 1020.05 1019.35 1018.55 1017.34 1015.50 1014.49 1014.37 1014.59 1014.53 1014.01 1013.78 1010.67 1008.85 1008.06 1007.94 1008.31 1008.61 1009.18 1009.20 1009.67 1009.93 1010.47 1010.99 1011.70 1012.30 1013.06 1013.29 1013.33 1012.83 1012.23 1011.55 1011.51 1011.84 1012.05 1012.84 1013.92 1014.49 1015.71 1016.63 1017.29 1017.40 1017.09
1021.75 1021.23 1020.63 1019.86 1019.05 1018.39 1017.68 1015.74 1015.02 1014.62 1014.05 1013.09 1012.37 1011.21 1009.71 1008.58 1007.75 1007.77 1007.63 1008.39 1008.97 1009.50 1010.02 1010.37 1011.16 1011.62 1011.88 1012.09 1012.55 1012.80 1012.88 1012.30 1011.65 1010.95 1011.41 1011.40 1011.69 1012.54 1013.87 1015.10 1016.21 1016.95 1017.18 1017.23 1017.29
1021.73 1021.26 1020.62 1019.85 1018.97 1018.12 1018.14 1017.05 1015.83 1015.37 1014.25 1012.11 1011.43 1010.87 1009.48 1009.30 1008.86 1007.52 1007.62 1008.61 1009.07 1009.74 1010.30 1010.96 1010.93 1011.21 1011.35 1011.65 1012.03 1012.27 1012.21 1011.85 1011.35 1010.74 1011.52 1011.15 1011.89 1012.29 1013.37 1014.34 1015.42 1016.38 1017.05 1017.41 1017.67
1021.47 1021.24 1020.72 1019.96 1018.84 1017.83 1017.62 1016.51 1015.50 1014.94 1014.85 1011.56 1009.97 1009.21 1008.60 1008.58 1008.57 1007.61 1007.60 1008.26 1008.94 1009.83 1010.36 1010.82 1010.40 1010.67 1011.13 1011.14 1011.46 1011.29 1011.37 1011.03 1011.05 1010.88 1011.18 1011.34 1012.09 1012.50 1013.39 1014.48 1016.08 1016.76 1017.06 1017.06 1016.72
1021.24 1021.08 1020.80 1019.95 1018.82 1018.77 1017.43 1016.30 1015.52 1015.36 1014.84 1010.89 1008.80 1007.14 1007.43 1007.94 1007.94 1007.34 1007.46 1008.03 1008.80 1009.46 1010.45 1010.61 1010.03 1010.40 1010.48 1010.50 1010.49 1010.62 1009.98 1010.36 1010.68 1011.29 1011.84 1011.73 1012.69 1012.82 1013.43 1014.35 1015.10 1016.12 1016.28 1016.34 1016.36
1020.97 1020.85 1020.83 1020.85 1020.42 1019.21 1017.83 1016.67 1015.72 1015.50 1014.13 1008.90 1006.93 1005.18 1005.82 1007.16 1007.23 1006.82 1006.90 1007.80 1008.52 1009.26 1010.18 1009.85 1009.76 1009.88 1009.92 1009.72 1009.59 1009.79 1009.50 1010.10 1011.03 1012.04 1012.56 1012.47 1013.17 1013.25 1013.42 1013.91 1013.76 1014.54 1015.18 1015.50 1015.35
1020.58 1020.59 1020.63 1020.53 1020.66 1018.69 1017.77 1016.88 1016.26 1016.10 1012.73 1008.54 1006.18 1005.83 1006.67 1007.02 1007.01 1006.71 1007.22 1007.77 1008.36 1009.33 1009.72 1009.86 1009.23 1009.24 1008.96 1008.72 1008.83 1008.96 1009.81 1011.06 1011.96 1012.95 1013.66 1013.05 1013.37 1013.29 1012.75 1011.78 1012.04 1013.20 1014.16 1014.60 1014.95
1020.07 1020.28 1020.53 1020.54 1019.34 1018.29 1018.11 1017.36 1017.22 1014.79 1010.78 1008.24 1006.75 1006.11 1006.53 1006.97 1007.29 1007.32 1007.79 1008.30 1008.81 1009.58 1010.14 1009.93 1009.36 1008.78 1008.61 1008.59 1008.56 1009.15 1010.63 1012.39 1013.60 1014.55 1014.57 1013.25 1013.08 1011.66 1010.71 1010.20 1010.47 1011.58 1012.96 1013.77 1014.47
1019.60 1019.83 1019.57 1019.24 1018.87 1019.08 1018.77 1018.03 1016.43 1011.94 1009.94 1007.68 1006.69 1006.35 1006.66 1006.97 1007.19 1007.60 1008.14 1008.73 1008.93 1009.22 1010.14 1010.27 1009.60 1008.50 1008.01 1008.27 1008.70 1009.50 1010.64 1012.55 1014.09 1015.06 1014.94 1013.54 1012.44 1010.98 1010.04 1009.71 1010.00 1010.91 1011.92 1013.33 1014.11
1019.36 1019.52 1019.06 1017.52 1017.87 1019.26 1019.26 1017.32 1013.01 1011.27 1009.20 1007.84 1007.03 1006.74 1006.86 1006.73 1006.99 1007.79 1008.06 1008.30 1008.32 1008.49 1009.35 1009.73 1009.28 1008.20 1007.77 1007.87 1008.46 1009.34 1010.58 1011.55 1013.62 1015.00 1015.18 1013.93 1012.28 1011.16 1010.61 1010.43 1010.36 1011.15 1012.11 1012.86 1013.29
1019.28 1019.33 1017.72 1016.32 1017.17 1018.31 1018.15 1014.86 1012.30 1010.25 1008.67 1007.73 1007.45 1006.88 1006.81 1006.88 1007.36 1007.53 1007.67 1006.99 1007.44 1007.62 1007.81 1009.03 1009.39 1008.32 1007.86 1007.74 1007.84 1008.34 1009.66 1012.02 1014.11 1015.36 1015.77 1014.38 1012.77 1011.83 1011.39 1011.05 1011.08 1011.48 1011.83 1012.24 1012.72
1019.02 1018.84 1015.23 1014.97 1016.35 1017.31 1016.04 1013.65 1011.59 1009.77 1008.96 1008.27 1007.51 1007.25 1007.18 1007.10 1006.89 1006.89 1006.64 1006.44 1006.30 1007.11 1007.60 1008.67 1009.32 1008.72 1008.48 1008.06 1008.36 1008.69 1009.69 1011.67 1013.38 1014.63 1015.26 1014.75 1013.26 1011.01 1010.93 1010.90 1011.11 1011.27 1011.30 1011.20 1012.13
1017.84 1017.91 1014.33 1014.26 1015.71 1015.39 1014.21 1012.75 1011.19 1009.90 1008.91 1008.56 1007.86 1007.45 1007.29 1007.22 1007.13 1006.79 1006.37 1005.68 1005.32 1006.08 1007.63 1008.14 1009.16 1009.49 1008.54 1007.85 1007.60 1008.33 1008.99 1010.57 1013.10 1014.58 1014.56 1013.96 1012.26 1010.60 1010.48 1010.45 1010.54 1010.69 1010.75 1011.03 1011.23
1017.08 1016.45 1013.74 1013.66 1014.10 1014.07 1013.13 1012.20 1011.39 1010.23 1009.21 1008.69 1008.05 1007.59 1007.36 1007.52 1007.63 1007.08 1006.28 1005.91 1005.67 1006.02 1006.68 1007.97 1008.93 1009.65 1009.24 1008.65 1008.10 1008.31 1009.11 1010.15 1011.68 1012.97 1013.72 1014.04 1012.28 1010.27 1009.63 1009.70 1009.92 1010.10 1010.53 1010.84 1011.26
1016.72 1015.90 1014.53 1013.66 1013.08 1012.89 1012.67 1011.82 1011.05 1010.18 1009.67 1009.17 1008.52 1007.90 1007.94 1007.73 1007.76 1007.51 1006.97 1006.44 1006.40 1006.49 1006.71 1007.07 1008.50 1009.01 1009.06 1008.85 1008.69 1008.76 1009.07 1009.97 1010.95 1012.61 1013.00 1012.64 1011.89 1010.94 1010.17 1009.79 1009.77 1009.91 1010.20 1010.86 1011.24
1016.02 1014.87 1013.33 1013.31 1013.05 1012.68 1012.16 1011.19 1010.52 1009.83 1009.25 1008.80 1008.38 1008.40 1008.33 1008.22 1007.99 1007.86 1007.59 1007.07 1006.97 1007.08 1007.26 1007.62 1008.75 1009.07 1008.91 1008.71 1008.73 1008.76 1009.01 1009.57 1010.54 1010.96 1011.76 1011.59 1011.50 1010.84 1010.32 1009.93 1009.33 1009.36 1009.59 1010.35 1010.76
1015.50 1014.44 1013.33 1012.79 1012.31 1012.01 1011.85 1010.68 1009.90 1009.44 1009.00 1008.41 1008.63 1008.28 1008.17 1008.35 1008.12 1008.00 1007.81 1007.71 1007.48 1007.65 1007.86 1008.27 1009.22 1009.44 1009.84 1009.30 1009.11 1009.09 1009.29 1009.53 1009.87 1010.15 1010.59 1010.86 1011.07 1010.93 1010.61 1010.31 1010.40 1010.46 1010.08 1009.91 1009.96
1014.57 1013.71 1013.40 1012.67 1012.09 1011.51 1010.54 1010.22 1009.53 1009.36 1008.56 1008.06 1007.94 1008.37 1008.14 1007.93 1007.95 1007.98 1007.93 1008.06 1007.88 1008.05 1008.46 1009.02 1009.71 1010.60 1011.00 1010.35 1009.98 1009.71 1009.12 1009.23 1009.56 1009.85 1010.32 1010.98 1011.46 1011.66 1011.35 1011.41 1011.47 1011.36 1010.90 1010.42 1010.23
Thickness
5654 5661 5667 5674 5679 5685 5691 5697 5702 5707 5713 5717 5722 5726 5732 5737 5747 5749 5749 5767 5773 5775 5774 5770 5766 5767 5761 5751 5755 5748 5697 5686 5696 5705 5719 5748 5736 5750 5750 5735 5738 5736 5727 5726 5710
5649 5654 5660 5668 5674 5680 5686 5692 5699 5703 5709 5715 5720 5725 5730 5735 5741 5748 5777 5777 5777 5774 5768 5760 5755 5756 5743 5747 5749 5734 5709 5711 5732 5735 5730 5744 5741 5740 5736 5728 5727 5724 5727 5719 5709
5643 5650 5656 5661 5667 5674 5681 5687 5692 5699 5705 5712 5718 5723 5728 5732 5737 5759 5786 5780 5777 5775 5773 5769 5765 5755 5745 5752 5748 5745 5725 5735 5743 5748 5748 5745 5744 5746 5733 5723 5732 5718 5715 5711 5704
5639 5646 5652 5657 5664 5671 5676 5682 5687 5694 5700 5707 5713 5720 5725 5730 5720 5774 5784 5783 5778 5771 5767 5763 5757 5745 5738 5739 5751 5739 5753 5748 5753 5755 5747 5738 5752 5745 5743 5744 5747 5737 5725 5710 5700
5635 5640 5646 5654 5661 5667 5673 5679 5684 5691 5697 5702 5707 5714 5722 5723 5737 5777 5779 5777 5772 5767 5758 5754 5748 5742 5732 5744 5747 5743 5744 5748 5749 5752 5757 5753 5742 5745 5740 5747 5737 5727 5718 5707 5700
5631 5637 5643 5649 5658 5663 5669 5675 5684 5691 5696 5700 5703 5706 5714 5708 5766 5771 5772 5769 5767 5762 5759 5758 5748 5748 5740 5742 5741 5742 5738 5738 5740 5743 5752 5746 5740 5742 5733 5738 5728 5720 5711 5702 5696
5626 5631 5636 5643 5651 5659 5667 5674 5684 5691 5695 5699 5701 5705 5708 5723 5760 5761 5761 5763 5766 5763 5755 5758 5756 5747 5752 5742 5754 5743 5726 5730 5731 5737 5737 5743 5728 5724 5736 5731 5722 5711 5702 5690 5680
5621 5626 5632 5639 5647 5655 5666 5676 5684 5691 5693 5698 5700 5702 5705 5751 5755 5753 5755 5755 5763 5764 5761 5761 5761 5752 5750 5754 5738 5727 5715 5703 5729 5734 5737 5735 5709 5726 5725 5711 5700 5700 5695 5684 5678
5615 5620 5626 5632 5641 5651 5663 5676 5686 5693 5692 5694 5694 5699 5705 5752 5743 5755 5754 5745 5753 5756 5757 5760 5753 5739 5737 5717 5700 5701 5690 5701 5710 5733 5735 5729 5718 5724 5717 5710 5708 5695 5686 5685 5686
5608 5614 5621 5628 5636 5646 5658 5676 5685 5688 5688 5689 5697 5690 5718 5727 5746 5754 5754 5751 5741 5742 5736 5736 5724 5711 5707 5698 5675 5686 5689 5696 5704 5726 5724 5715 5716 5718 5712 5709 5702 5689 5687 5691 5689
5598 5606 5614 5622 5631 5640 5650 5666 5671 5676 5683 5686 5696 5702 5720 5736 5750 5745 5752 5742 5737 5728 5708 5720 5700 5692 5701 5706 5705 5701 5696 5702 5710 5727 5721 5716 5720 5716 5709 5699 5687 5686 5688 5688 5686
5587 5594 5604 5613 5624 5634 5637 5651 5657 5661 5660 5691 5698 5701 5719 5722 5712 5735 5746 5722 5718 5702 5709 5701 5690 5708 5714 5712 5705 5700 5696 5696 5711 5724 5714 5718 5712 5721 5710 5707 5696 5687 5683 5683 5683
5576 5582 5591 5601 5615 5627 5633 5644 5653 5661 5648 5681 5701 5705 5713 5718 5707 5719 5733 5723 5713 5701 5699 5688 5704 5714 5709 5705 5700 5701 5696 5703 5702 5718 5716 5716 5705 5709 5709 5702 5687 5686 5683 5688 5688
5563 5569 5577 5589 5606 5607 5626 5635 5644 5649 5630 5672 5693 5714 5715 5716 5704 5729 5733 5722 5710 5698 5696 5694 5714 5706 5705 5702 5707 5689 5719 5716 5710 5698 5680 5711 5668 5699 5697 5694 5692 5683 5687 5690 5689
5548 5556 5562 5568 5576 5593 5611 5621 5632 5634 5580 5689 5701 5736 5724 5707 5713 5717 5735 5717 5700 5702 5695 5694 5703 5699 5695 5705 5714 5704 5723 5717 5708 5689 5690 5692 5671 5679 5691 5687 5698 5691 5691 5691 5693
5533 5540 5548 5557 5561 5583 5596 5608 5616 5590 5585 5670 5701 5700 5694 5704 5709 5720 5714 5721 5714 5696 5698 5697 5716 5710 5708 5719 5720 5728 5712 5695 5689 5677 5658 5681 5674 5667 5681 5704 5709 5701 5694 5694 5691
5516 5524 5532 5541 5554 5570 5578 5591 5573 5552 5648 5668 5678 5694 5690 5689 5693 5699 5697 5688 5680 5668 5669 5690 5697 5712 5718 5706 5714 5711 5683 5644 5649 5641 5643 5683 5675 5684 5707 5719 5725 5711 5701 5699 5691
5496 5508 5521 5535 5542 5546 5554 5565 5547 5617 5640 5673 5678 5683 5675 5684 5687 5684 5683 5675 5683 5684 5665 5662 5659 5700 5718 5705 5696 5697 5683 5642 5637 5628 5644 5679 5667 5686 5716 5724 5724 5715 5708 5698 5690
5475 5489 5509 5530 5529 5525 5530 5530 5584 5612 5645 5654 5663 5660 5664 5678 5682 5673 5669 5673 5684 5690 5668 5658 5666 5706 5710 5714 5707 5692 5672 5689 5658 5656 5640 5658 5682 5699 5704 5706 5710 5706 5697 5692 5691
5454 5467 5501 5510 5515 5512 5514 5563 5591 5621 5640 5650 5637 5652 5647 5660 5660 5663 5662 5685 5686 5695 5698 5677 5661 5695 5704 5710 5707 5701 5701 5658 5638 5625 5625 5646 5672 5665 5687 5692 5697 5696 5696 5692 5690
5434 5449 5500 5501 5500 5494 5511 5549 5589 5613 5620 5626 5635 5637 5645 5653 5658 5657 5671 5685 5693 5691 5691 5678 5661 5677 5689 5684 5676 5684 5672 5664 5654 5638 5623 5621 5644 5687 5690 5690 5690 5693 5699 5702 5692
5422 5437 5481 5488 5481 5493 5522 5556 5583 5593 5609 5612 5627 5634 5637 5645 5649 5659 5659 5679 5698 5695 5671 5677 5657 5645 5671 5694 5698 5689 5678 5669 5628 5639 5635 5631 5639 5704 5692 5693 5689 5689 5696 5695 5698
5419 5437 5467 5478 5478 5494 5528 5548 5559 5576 5590 5603 5611 5627 5638 5634 5632 5649 5663 5677 5685 5680 5670 5670 5646 5626 5651 5667 5677 5677 5680 5671 5656 5644 5637 5614 5629 5694 5701 5696 5696 5690 5690 5690 5689
5414 5422 5444 5469 5486 5506 5517 5534 5544 5564 5573 5586 5599 5613 5618 5622 5629 5631 5646 5662 5668 5670 5670 5672 5649 5642 5637 5652 5661 5662 5670 5662 5652 5620 5637 5632 5651 5671 5681 5686 5690 5690 5688 5682 5680
5407 5418 5450 5453 5480 5492 5509 5528 5538 5548 5567 5580 5587 5590 5601 5602 5614 5619 5633 5646 5655 5655 5663 5657 5640 5650 5653 5663 5665 5663 5664 5661 5648 5649 5634 5650 5643 5659 5669 5676 5689 5688 5684 5679 5678
5401 5416 5441 5458 5484 5494 5499 5515 5532 5547 5557 5568 5568 5586 5591 5592 5605 5615 5625 5629 5634 5644 5647 5644 5627 5645 5639 5651 5653 5651 5650 5652 5652 5655 5647 5652 5650 5653 5663 5670 5665 5667 5674 5679 5680
5403 5418 5429 5452 5467 5493 5503 5517 5531 5538 5553 5566 5572 5572 5578 5596 5605 5612 5620 5619 5628 5628 5628 5629 5623 5614 5614 5635 5632 5619 5641 5646 5651 5654 5651 5637 5641 5642 5646 5647 5647 5650 5659 5665 5670